Regional Weather Roundup
Issued by NWS

Home | Current Version | Previous Version | Graphics & Text | Print | Product List | Glossary Off
Versions: 1 2 3 4 5 6 7 8 9 10 11 12 13 14 15 16 17 18 19 20 21 22 23 24 25 26 27 28 29 30 31 32 33 34 35 36 37 38 39 40 41 42 43 44 45 46 47 48 49 50

546
ASUS43 KMKX 231921
RWRWI

WISCONSIN REGIONAL WEATHER ROUNDUP
NATIONAL WEATHER SERVICE MILWAUKEE/SULLIVAN WI
200 PM CDT THU MAR 23 2017

NOTE: "FAIR" INDICATES FEW OR NO CLOUDS BELOW 12,000 FEET WITH NO
SIGNIFICANT WEATHER AND/OR OBSTRUCTIONS TO VISIBILITY.

WIZ001-002-006>008-014>016-023>028-232000-
NORTHWEST WISCONSIN

CITY           SKY/WX    TMP DP  RH WIND       PRES   REMARKS
SUPERIOR ARPT  CLOUDY    38  25  58 S10G18    30.02F WCI  31
ASHLAND        NOT AVBL
HAYWARD        CLOUDY    38  21  50 S12G17    30.04F WCI  30
SIREN          CLOUDY    38  22  53 S9        30.03F WCI  31
CUMBERLAND     CLOUDY    36  21  55 SE14      30.02F WCI  27
RICE LAKE      CLOUDY    37  24  59 SE13      30.06F WCI  29
CHETEK         CLOUDY    37  24  57 SE12      30.05F WCI  30
LADYSMITH      CLOUDY    36  23  60 S10G17    30.09F WCI  28
EAU CLAIRE     CLOUDY    40  20  44 S14G22    30.06F WCI  32
MENOMONIE      CLOUDY    40  22  49 SE16      30.04F WCI  31
NEW RICHMOND   CLOUDY    38  24  55 S10       30.02F WCI  31
OSCEOLA        CLOUDY    38  27  63 SE16      30.02F WCI  30
$$

WIZ003>005-009-010-017-018-232000-
NORTH CENTRAL WISCONSIN

CITY           SKY/WX    TMP DP  RH WIND       PRES   REMARKS
MANITOWISH WTR CLOUDY    34  20  57 S14G23    30.06F WCI  24
ARBOR VITAE    CLOUDY    37  24  59 S10       30.06F WCI  29
WOODRUFF       CLOUDY    37  24  59 S10       30.06F WCI  29
RHINELANDER    CLOUDY    37  20  50 S10G20    30.10F WCI  30
EAGLE RIVER    CLOUDY    34  17  49 S13G21    30.08F WCI  25
LAND O LAKES   CLOUDY    35  17  47 S14G21    30.09F WCI  26
PHILLIPS       CLOUDY    35  22  60 S14G24    30.07F WCI  26
TOMAHAWK       CLOUDY    37  22  55 S5        30.11S WCI  33
MEDFORD        CLOUDY    36  23  59 S15       30.10S WCI  26
MERRILL        CLOUDY    38  20  49 S7G17     30.12F WCI  32
$$

WIZ029-030-035-036-043>047-232000-
CENTRAL WISCONSIN

CITY           SKY/WX    TMP DP  RH WIND       PRES   REMARKS
WAUSAU         CLOUDY    40  21  46 SE15      30.11F WCI  32
MOSINEE        CLOUDY    39  21  48 SE15G21   30.14F WCI  31
MARSHFIELD     CLOUDY    38  21  50 S15       30.10F WCI  29
STEVENS POINT  CLOUDY    39  17  41 S16G23    30.15F WCI  30
WAUPACA        CLOUDY    44  22  43 SE14      30.18F
WAUTOMA        NOT AVBL
WISC RAPIDS    CLOUDY    40  20  44 S15G24    30.16F WCI  32
CAMP DOUGLAS   CLOUDY    41  21  45 SE12G20   30.11F
$$

WIZ011>013-019>022-031-037>040-048>050-232000-
NORTHEAST WISCONSIN

CITY           SKY/WX    TMP DP  RH WIND       PRES   REMARKS
ANTIGO         CLOUDY    35  22  60 S16       30.14F WCI  25
SHAWANO        CLOUDY    41  23  49 S10G17    30.19F
OCONTO         CLOUDY    36  26  68 S10G18    30.23F WCI  28
STURGEON BAY   CLOUDY    34  25  69 S23G29    30.24F WCI  22
GREEN BAY      CLOUDY    38  27  64 S17       30.21F WCI  28
MANITOWOC      CLOUDY    36  26  67 S18G26    30.25F WCI  26
APPLETON       CLOUDY    39  19  45 SE16G23   30.18F WCI  30
CLINTONVILLE   CLOUDY    37  23  56 SE12      30.18F WCI  30
OSHKOSH        CLOUDY    42  24  49 S10       30.19F
$$

WIZ032>034-041-042-053>061-232000-
SOUTHWEST WISCONSIN

CITY           SKY/WX    TMP DP  RH WIND       PRES   REMARKS
LA CROSSE      CLOUDY    43  23  45 S15       30.10F
SPARTA         CLOUDY    41  22  46 SE9G18    30.12F
VIROQUA        CLOUDY    40  23  49 S16G22    30.10F WCI  32
BOSCOBEL       CLOUDY    44  22  41 S10G20    30.14F
PRAIRIE DU CHI CLOUDY    42  24  50 SE12G17   30.12F
PLATTEVILLE    CLOUDY    43  27  53 SE18      30.14F
$$

WIZ056-057-062-063-064-067-068-232000-
SOUTH CENTRAL WISCONSIN

CITY           SKY/WX    TMP DP  RH WIND       PRES   REMARKS
REEDSBURG      CLOUDY    42  22  45 SE8G20    30.13F
BARABOO/DELLS  CLOUDY    42  20  41 S16       30.14F
LONE ROCK      CLOUDY    44  22  41 S13       30.16F
MINERAL POINT  CLOUDY    45  23  42 S16G23    30.14F
MADISON        CLOUDY    44  19  36 S12       30.17F
MIDDLETON      CLOUDY    46  21  37 S12G17    30.17F
WATERTOWN      CLOUDY    44  20  38 S16G22    30.19F
MONROE         CLOUDY    43  23  45 S16G25    30.17F
JANESVILLE     CLOUDY   N/A N/A N/A SE15G21   30.19F
$$

WIZ051-052-058>065-066-070>072-232000-
SOUTHEAST WISCONSIN

CITY           SKY/WX    TMP DP  RH WIND       PRES   REMARKS
MILWAUKEE      PTSUNNY   43  23  45 SE15      30.25F
WAUKESHA       PTSUNNY   43  23  45 SE12G22   30.21F
MILWAUKEE/TIMM MOSUNNY   43  19  39 SE15G22   30.24F
RACINE         CLOUDY    39  23  52 S21G30    30.27F WCI  29
KENOSHA        MOSUNNY   42  25  50 SE16      30.24F
FOND DU LAC    CLOUDY    42  23  46 S14       30.19F
SHEBOYGAN      CLOUDY    36  25  64 SE20G26   30.23F WCI  25
WEST BEND      CLOUDY    39  25  56 SE13G18   30.21F WCI  32
JUNEAU         CLOUDY    42  19  40 S16G23    30.21S
$$

LSZ147-162-232000-
LAKE SUPERIOR

STATION/POSITION TIME  TEMP    WIND        PRES    WAVE
                       AIR SEA DIR/SP/G            HT/PER
                 (UTC) (F)     (DEG/KT/KT) (MB)    (FT/S)
DEVILS ISLAND    1900   36     180/  6/  8 1018.0F
PORT WING        1830   38     190/  6/ 13 1017.6F
SAXON HARBOR     1830   40     210/  5/  9 1017.6S
$$

LMZ867-665-643>646-232000-
LAKE MICHIGAN

STATION/POSITION TIME  TEMP    WIND        PRES    WAVE
                       AIR SEA DIR/SP/G            HT/PER
                 (UTC) (F)     (DEG/KT/KT) (MB)    (FT/S)
CHAMBERS ISLAND  1840   34     140/  8/ 15 1023.7F
NORTHPORT PIER   1830   33     160/ 12/ 21 1024.7F
SISTER BAY       1820   34     180/ 25/ 30   N/A
KEWAUNEE LAKESHO 1854   34     180/ 22/ 26 1024.3F
SHEBOYGAN LAKESH 1900   35     160/ 24/ 28 1024.4F
PORT WASHINGTON  1830   37     160/ 18/ 23 1025.7F
MILWAUKEE LAKESH 1850   35     150/ 23/ 27   N/A
KENOSHA   LAKESH 1900   36     160/ 23/ 26 1024.0
$$

TC  - TEMPERATURE IN CELSIUS
VSB - VISIBILITY IN STATUTE MILES
WCI - WIND CHILL INDEX
HX  - HEAT INDEX





USA.gov is the U.S. government's official web portal to all federal, state and local government web resources and services.